702  
ASUS46 KSTO 172115  
RWRCA  
 
NORTHERN AND CENTRAL CA REGIONAL WEATHER ROUNDUP  
NATIONAL WEATHER SERVICE SACRAMENTO CA  
200 PM PDT TUE JUL 17 2018  
 
NOTE: FAIR INDICATES FEW OR NO CLOUDS BELOW 12,000 FEET WITH NO  
SIGNIFICANT WEATHER AND/OR S TO VISIBILITY
.  
 
CAZ001-003-172200-  
NORTHWEST AREA  
 
CITY SKY/WX TMP DP RH WIND PRES REMARKS
 
CRESCENT CITY CLOUDY 61 54 77 W8 30.09S  
UKIAH SUNNY 99 52 20 SE8 29.92F HX 96  

 
 
CAZ006-505>513-172200-  
BAY AREA  
 
CITY SKY/WX TMP DP RH WIND PRES REMARKS
 
SANTA ROSA MOSUNNY 80 58 46 S9 29.97F  
SAN RAFAEL N/A 75 MM MM MISG  
NAPA SUNNY 75 60 59 S9 29.97F  
CONCORD SUNNY 85 56 37 NW10 29.94F  
OAKLAND CITY N/A MM MM MM MISG  
OAKLAND MOSUNNY 68 56 65 NW15 30.00F  
SAN FRAN CITY N/A 63 MM 73 MISG  
SAN FRAN ARPT PTSUNNY 67 54 63 NW21 29.99F  
LIVERMORE SUNNY 90 50 25 W10 29.95F  
HAYWARD SUNNY 73 57 57 W14 29.99F  
REDWOOD CITY N/A 72 MM 62 MISG  
MOFFETT ARPT SUNNY 70 59 68 N13 29.99F  
SAN JOSE ARPT MOSUNNY 79 58 48 W10 29.98S  

 
CAZ034-037-514>518-172200-  
CENTRAL COAST  
 
CITY SKY/WX TMP DP RH WIND PRES REMARKS
 
WATSONVILLE SUNNY 67 58 72 S9 30.01F  
SALINAS SUNNY 69 56 62 NW16G23 30.00F  
MONTEREY SUNNY 64 55 72 NW8 30.03F  
SAN LUIS OBISP SUNNY 75 56 51 NW14 29.98F  

 
CAZ015-016-172200-  
NORTHERN SACRAMENTO VALLEY  
 
CITY SKY/WX TMP DP RH WIND PRES REMARKS
 
REDDING SUNNY 103 53 19 CALM 29.88F HX 101  
RED BLUFF SUNNY 101 57 23 SE8 29.89F HX 100  
OROVILLE SUNNY 97 60 29 VRB5 29.92F HX 97  

 
CAZ016>018-172200-  
SOUTHERN SACRAMENTO VALLEY  
 
CITY SKY/WX TMP DP RH WIND PRES REMARKS
 
AUBURN SUNNY 97 57 26 SW8 30.00S HX 95  
BEALE AFB SUNNY 97 61 30 W6 29.89F HX 97  
LINCOLN FAIR 95 61 31 CALM 29.91S HX 95  
MARYSVILLE SUNNY 97 65 34 VRB7 29.91F HX 99  
SAC INTL ARPT SUNNY 92 57 30 CALM 29.91F HX 90  
MATHER AIRPORT SUNNY 93 54 26 W6 29.90F HX 91  
DOWNTOWN SAC N/A 94 MM MM MISG  
SAC EXEC ARPT SUNNY 92 59 33 VRB7 29.91F HX 91  
VACAVILLE SUNNY 98 48 18 S9 29.93F HX 94  
TRAVIS AFB SUNNY 89 54 30 SW18 29.90F  

 
CAZ019>021-172200-  
SAN JOAQUIN VALLEY  
 
CITY SKY/WX TMP DP RH WIND PRES REMARKS
 
STOCKTON SUNNY 95 54 25 NW12 29.91F HX 93  
MODESTO SUNNY 96 48 19 NW8 29.90F HX 92  
MERCED SUNNY 98 45 16 NW13 29.89F HX 94  
LEMOORE MOSUNNY 103 46 14 N12 29.89F HX 99  
FRESNO MOSUNNY 101 52 19 CALM 29.90F HX 98  
HANFORD SUNNY 101 47 16 NW7 29.90F HX 97  
PORTERVILLE N/A 97 55 24 W8 29.92F HX 95  
BAKERSFIELD SUNNY 99 51 19 NW8 29.90F HX 96  

 
CAZ011-012-071-172200-  
NORTHERN MOUNTAINS  
 
CITY SKY/WX TMP DP RH WIND PRES REMARKS
 
YREKA SUNNY 98 45 16 MISG 30.04F HX 94  
MOUNT SHASTA SUNNY 94 52 24 CALM 30.11F HX 91  
ALTURAS SUNNY 93 34 12 W12G18 30.16F  

 
CAZ011-012-071-172200-  
SIERRA NEVADA MTNS  
 
CITY SKY/WX TMP DP RH WIND PRES REMARKS
 
BLUE CANYON SUNNY 83 46 27 VRB6 30.28S  
TAHOE VLY ARPT SUNNY 82 47 29 NE10 30.30F  
MAMMOTH LAKES FAIR 87 39 18 CALM 30.35F  

 
 
 
CLICK HERE TO GO TO PREVIOUS BULLETINS.

The Nexlab CA Page Main Text Page